Wind_Speed
63 61 59 58 61 71 71 71 72 70 66 66 67 67 64 63 63 65 68 66 60 62 60 63 64 61 56 61 67 65 68 72 71 72 74 79 78 76 74 71 82 72 56 54 56
68 65 61 62 60 72 75 74 71 74 70 71 70 72 69 64 65 62 63 61 58 64 62 65 67 64 64 68 69 66 69 69 69 71 75 75 76 71 75 80 83 67 57 53 54
70 67 65 65 66 65 78 75 78 75 78 81 78 76 74 72 70 65 69 68 62 61 64 65 70 73 69 68 67 69 67 68 70 76 76 79 81 77 82 84 72 57 52 53 57
71 69 67 68 70 69 71 70 70 70 72 78 79 77 77 78 76 72 76 71 68 64 64 67 66 66 67 64 65 72 66 72 81 75 76 76 79 82 85 75 65 49 51 54 56
69 69 71 69 70 69 70 74 71 70 67 71 69 79 81 84 83 83 77 74 72 71 71 69 66 64 58 59 66 72 76 74 76 78 82 76 85 85 74 68 59 51 54 60 60
64 68 66 66 68 69 71 71 69 68 69 70 77 76 81 85 84 79 75 70 68 67 66 67 67 67 69 66 68 73 75 75 76 73 77 82 84 76 68 68 58 56 61 61 60
54 55 58 60 61 61 63 66 67 63 63 60 60 63 65 61 75 76 67 67 68 68 69 68 62 65 72 73 73 76 74 73 74 79 81 83 75 62 61 63 60 58 57 59 60
58 57 57 57 56 57 52 55 56 58 56 55 53 53 56 64 60 64 63 66 71 69 69 71 69 68 64 65 70 79 75 76 78 80 84 81 62 59 61 61 61 57 56 58 60
65 63 60 63 60 62 62 61 60 60 57 57 56 55 61 68 68 66 64 65 67 65 59 61 62 63 64 69 74 72 72 74 81 82 79 66 56 60 60 59 59 56 59 60 63
67 70 67 67 69 66 70 67 67 64 58 68 65 64 67 75 69 65 66 70 69 70 71 66 69 70 70 76 73 75 77 81 85 80 55 47 46 49 52 52 58 59 60 60 62
71 73 69 68 75 77 73 72 72 71 70 70 65 70 69 75 76 72 73 76 72 68 68 72 71 71 75 72 74 77 80 69 55 44 41 42 45 50 53 51 51 53 56 58 58
58 62 69 74 78 78 78 78 76 75 75 77 74 77 76 77 78 78 76 72 71 72 75 73 72 76 73 75 73 71 54 42 40 41 42 39 41 42 42 43 44 42 43 44 48
66 64 65 65 67 70 74 79 81 81 79 78 79 74 80 76 76 77 76 75 73 74 72 73 75 71 71 66 60 46 42 37 38 38 37 38 43 41 40 42 44 45 43 44 47
72 72 71 70 72 70 67 67 68 69 71 71 78 79 83 77 76 81 77 77 75 72 78 72 69 67 57 46 43 36 33 33 32 33 32 36 38 34 36 41 41 41 38 38 36
84 81 79 75 74 79 73 72 72 69 65 57 62 66 71 72 72 77 76 75 74 74 62 57 54 41 35 38 28 26 24 28 29 28 28 29 32 35 36 37 34 33 28 32 29
92 91 88 83 81 84 83 81 77 77 60 53 52 51 52 51 51 53 53 53 51 47 45 40 40 33 33 25 24 23 23 27 30 31 29 32 31 31 32 32 32 28 31 28 27
98 97 95 92 87 91 90 90 88 76 55 50 51 53 57 54 52 49 45 44 42 41 38 45 39 31 29 24 25 22 24 29 31 33 34 33 32 32 30 29 30 27 29 29 27
100 98 100 99 97 99 100 99 94 63 65 61 57 57 58 60 54 54 52 47 43 38 42 37 33 36 31 23 26 22 26 29 30 32 35 33 32 32 27 26 26 28 29 27 21
96 102 100 100 105 106 110 108 80 73 74 74 71 65 60 57 58 57 52 48 47 45 44 43 39 40 28 29 23 22 24 28 28 33 34 36 34 32 25 24 25 29 29 15 17
91 95 96 104 108 113 118 103 87 85 86 80 79 73 69 65 65 61 58 49 48 46 49 44 45 43 38 26 26 26 27 28 30 33 31 39 39 34 25 23 23 28 19 12 13
73 83 97 103 112 116 120 96 94 96 92 90 86 84 78 75 71 68 63 60 56 57 58 52 51 48 43 31 35 31 29 31 31 32 31 40 42 32 30 22 22 24 20 7 9
61 69 89 99 110 113 114 97 107 107 103 95 92 90 86 84 80 77 72 67 63 64 63 58 59 51 50 42 36 33 36 35 35 32 35 37 41 32 29 21 22 23 19 4 7
57 63 76 87 99 111 112 109 116 112 108 103 97 96 95 90 87 83 82 77 73 70 68 68 56 56 55 40 39 40 41 35 35 35 36 38 39 27 29 21 21 25 17 5 6
51 59 66 73 86 103 112 114 119 114 113 110 103 97 95 91 89 90 87 83 80 77 76 74 68 59 52 52 51 43 43 36 36 36 38 41 39 28 28 24 15 19 16 5 11
46 51 57 64 76 90 106 113 116 117 116 116 108 105 105 99 95 93 94 92 89 84 82 79 70 64 60 59 53 50 45 40 35 40 39 38 38 33 29 24 15 19 20 10 10
40 45 49 58 66 75 89 103 113 119 120 119 114 114 110 104 105 98 98 94 95 91 86 82 73 70 67 64 58 54 47 37 37 43 40 36 41 33 27 22 15 17 21 11 9
35 38 44 49 56 65 78 89 103 117 122 124 119 120 113 112 106 105 96 93 91 91 89 83 79 74 67 66 65 59 44 42 42 45 41 37 42 32 27 24 17 16 17 10 11
Wind_Direction
241 244 246 242 238 236 235 238 241 244 247 247 247 255 259 263 259 256 255 264 267 263 263 265 277 272 273 279 290 286 282 283 288 289 292 294 299 305 305 302 311 314 295 293 293
240 243 243 245 244 233 235 238 242 245 244 247 251 255 257 256 256 262 258 264 264 263 260 272 274 272 276 281 287 281 278 280 285 288 293 295 300 306 306 309 310 308 290 288 293
240 243 245 243 243 244 236 239 240 242 248 251 254 254 254 256 252 253 257 259 258 258 265 269 267 272 279 283 284 275 276 281 285 290 292 295 300 306 305 310 308 298 285 285 289
243 244 247 246 245 246 246 248 253 252 243 246 250 250 254 254 252 253 256 260 261 265 268 269 271 276 280 279 276 272 276 285 288 288 293 296 297 304 307 307 303 286 284 288 296
245 247 249 251 252 249 248 249 251 253 251 245 250 246 250 252 252 255 258 261 267 269 268 269 271 273 272 269 274 281 285 284 285 290 291 297 305 307 303 300 294 296 286 293 303
246 248 250 251 251 251 250 252 253 250 250 252 252 252 249 248 252 254 257 261 263 265 262 268 269 272 272 273 275 279 280 283 287 292 297 300 303 301 294 292 292 293 291 300 304
238 244 249 250 250 251 250 251 251 250 248 248 247 249 247 251 254 255 256 258 257 260 265 266 264 267 273 273 275 276 279 282 287 294 301 302 298 294 287 294 293 290 296 296 299
235 241 240 245 242 246 242 247 250 249 248 247 246 244 248 249 249 249 250 257 258 261 262 266 269 267 268 272 274 277 280 284 291 297 298 297 289 286 287 289 288 292 293 295 297
242 240 241 239 237 237 239 240 237 238 241 245 246 246 239 245 243 247 251 252 256 259 263 264 267 271 272 272 274 284 291 293 295 296 294 287 285 284 283 282 284 287 289 292 295
248 247 245 243 242 245 239 238 241 242 243 237 237 240 241 247 244 247 255 259 258 259 263 269 271 275 280 276 284 290 293 294 293 292 287 291 290 288 286 282 279 282 284 292 294
250 248 246 248 247 246 244 244 242 242 240 241 242 244 245 250 257 257 257 262 266 269 274 272 277 284 281 288 290 293 292 290 282 285 288 287 283 282 286 290 291 288 289 289 292
255 253 251 249 249 247 246 243 244 241 245 245 244 244 244 248 251 254 254 263 267 271 272 273 276 277 287 287 284 289 278 274 283 283 285 289 285 289 295 294 296 296 292 292 297
250 249 251 251 251 248 248 249 248 249 246 247 247 243 251 249 254 256 256 261 268 270 272 275 278 280 280 281 278 269 271 279 280 282 285 286 286 292 298 297 295 293 294 297 299
253 250 245 246 248 250 245 246 246 247 244 244 249 245 249 250 253 254 255 259 262 262 262 269 271 271 274 267 263 269 278 283 286 286 293 285 286 287 291 293 299 302 305 297 300
249 247 247 243 243 246 245 244 243 242 242 240 246 245 249 248 250 254 256 257 259 261 261 257 263 256 253 259 267 277 284 291 296 302 307 313 299 291 294 297 301 309 295 299 309
247 245 244 242 242 243 243 242 242 241 244 240 238 243 243 244 240 245 246 245 246 248 248 245 246 250 252 259 268 279 291 296 302 307 310 313 319 307 307 299 306 310 301 307 312
249 243 241 241 238 242 241 241 240 241 243 243 235 236 238 240 239 238 236 237 237 233 238 239 246 250 253 258 268 285 293 298 306 307 312 312 315 322 312 308 306 305 304 313 316
254 248 240 237 238 238 239 239 238 235 238 238 236 230 233 237 239 238 236 235 238 239 242 247 248 246 247 257 264 278 285 292 306 309 312 320 325 324 315 314 311 306 304 309 317
250 249 244 238 234 237 237 237 238 234 232 234 232 231 227 232 238 237 235 229 230 232 238 241 244 251 253 252 262 268 277 289 300 305 312 317 323 332 318 312 312 309 308 309 310
247 241 241 239 237 234 235 234 231 232 231 228 230 229 227 226 232 234 230 230 234 238 243 245 249 252 254 260 263 266 273 283 292 299 314 314 315 326 311 308 309 307 297 312 301
245 240 236 233 234 235 233 230 230 230 230 229 227 226 226 226 227 232 232 228 232 238 241 238 243 247 254 256 255 266 274 279 284 298 306 305 311 324 312 311 306 299 296 324 300
246 239 236 230 229 229 229 227 229 228 227 226 227 226 224 224 226 227 231 233 234 236 241 242 240 243 250 251 260 265 269 272 284 294 299 303 306 320 311 308 303 298 301 304 300
248 240 236 233 228 227 225 223 226 225 227 223 223 224 225 222 224 227 230 231 232 235 240 245 244 248 253 256 260 258 262 274 281 287 292 297 302 314 308 296 297 298 304 288 295
250 242 237 232 228 227 225 219 223 224 225 225 221 223 225 225 223 224 227 230 232 233 237 242 242 246 250 249 250 258 264 267 275 285 289 291 300 316 305 297 296 299 294 284 272
254 246 240 233 227 227 226 222 219 221 222 223 222 221 221 222 222 223 226 228 230 231 235 239 242 245 247 249 251 254 257 264 277 280 284 289 296 305 309 301 296 291 285 238 256
254 249 241 235 230 226 226 223 220 219 221 222 221 221 221 221 222 223 223 225 230 233 235 238 239 241 244 248 251 252 253 264 270 274 278 286 288 301 305 292 285 282 295 241 220
259 247 242 236 231 226 227 225 221 220 219 221 220 220 220 221 223 224 226 225 228 233 235 236 239 241 242 245 247 247 253 256 260 267 273 281 282 295 302 299 276 279 279 249 229
Height
10812 10815 10820 10825 10829 10834 10838 10842 10846 10850 10854 10856 10859 10862 10863 10865 10866 10868 10869 10870 10878 10879 10879 10876 10880 10880 10879 10876 10876 10874 10869 10865 10863 10860 10856 10851 10846 10842 10835 10829 10822 10816 10809 10805 10800
10802 10807 10810 10814 10817 10822 10826 10829 10834 10838 10841 10844 10848 10851 10853 10856 10857 10857 10856 10862 10866 10867 10867 10869 10869 10868 10868 10868 10866 10862 10858 10856 10852 10851 10846 10840 10836 10831 10824 10820 10814 10806 10798 10793 10791
10791 10796 10799 10803 10806 10809 10814 10818 10822 10825 10828 10833 10838 10840 10841 10843 10845 10846 10843 10848 10852 10854 10858 10858 10857 10857 10859 10857 10856 10851 10847 10847 10841 10841 10836 10831 10827 10819 10813 10808 10803 10796 10790 10785 10780
10778 10783 10787 10791 10795 10799 10803 10806 10808 10812 10815 10820 10824 10827 10829 10831 10832 10836 10831 10838 10840 10845 10847 10845 10847 10850 10848 10847 10845 10841 10837 10835 10831 10830 10824 10820 10813 10806 10800 10795 10792 10788 10782 10777 10772
10767 10770 10773 10777 10780 10785 10788 10791 10795 10798 10802 10805 10809 10813 10816 10818 10816 10825 10823 10824 10828 10831 10834 10834 10839 10838 10839 10834 10832 10826 10825 10822 10819 10818 10814 10808 10801 10792 10787 10783 10780 10780 10774 10769 10763
10755 10757 10760 10763 10765 10768 10772 10776 10781 10785 10789 10792 10795 10798 10801 10799 10803 10813 10808 10813 10817 10820 10821 10824 10828 10829 10827 10822 10818 10817 10812 10811 10808 10807 10802 10796 10790 10782 10776 10773 10770 10768 10765 10759 10753
10742 10743 10745 10747 10749 10752 10756 10762 10766 10769 10773 10778 10781 10787 10790 10779 10791 10799 10800 10801 10806 10809 10811 10812 10815 10816 10812 10808 10806 10803 10803 10801 10799 10795 10790 10783 10776 10771 10764 10764 10762 10758 10755 10750 10745
10729 10730 10733 10733 10735 10738 10743 10747 10751 10754 10759 10763 10769 10776 10778 10772 10782 10782 10792 10792 10793 10796 10799 10800 10802 10802 10798 10797 10792 10793 10792 10788 10787 10782 10779 10773 10765 10760 10756 10754 10751 10748 10745 10742 10736
10715 10716 10719 10721 10723 10726 10729 10734 10739 10744 10746 10750 10757 10763 10764 10758 10767 10769 10777 10780 10783 10783 10784 10784 10784 10784 10787 10782 10780 10782 10781 10777 10769 10773 10767 10760 10756 10751 10749 10747 10739 10738 10736 10732 10727
10700 10701 10704 10706 10708 10712 10715 10720 10724 10728 10732 10739 10744 10747 10753 10741 10752 10758 10763 10766 10772 10771 10772 10771 10767 10774 10773 10769 10775 10771 10768 10764 10760 10759 10754 10751 10748 10741 10733 10735 10730 10728 10726 10723 10719
10683 10686 10687 10688 10690 10693 10698 10703 10709 10713 10718 10722 10731 10732 10737 10735 10732 10744 10751 10752 10757 10757 10756 10755 10760 10759 10756 10763 10761 10757 10756 10751 10747 10748 10745 10741 10738 10731 10725 10723 10721 10720 10720 10713 10707
10665 10665 10668 10671 10670 10673 10678 10686 10690 10698 10702 10705 10714 10716 10721 10720 10724 10730 10739 10741 10743 10742 10742 10747 10749 10745 10752 10752 10750 10747 10745 10742 10741 10738 10736 10733 10728 10723 10720 10716 10713 10712 10707 10705 10700
10645 10646 10649 10651 10650 10652 10660 10666 10670 10676 10687 10690 10695 10705 10699 10709 10712 10716 10725 10727 10728 10728 10730 10729 10732 10739 10741 10740 10737 10736 10735 10736 10733 10730 10728 10726 10717 10717 10715 10709 10706 10704 10701 10697 10692
10621 10623 10627 10632 10631 10635 10641 10645 10647 10655 10662 10678 10676 10690 10686 10698 10705 10702 10709 10712 10716 10718 10717 10725 10725 10725 10731 10729 10728 10728 10729 10727 10725 10722 10721 10715 10711 10710 10706 10704 10703 10698 10694 10687 10683
10591 10596 10601 10610 10614 10608 10622 10625 10627 10635 10643 10662 10664 10675 10673 10686 10679 10688 10688 10697 10702 10703 10707 10712 10714 10716 10718 10718 10720 10721 10722 10719 10717 10715 10712 10708 10704 10699 10699 10697 10696 10692 10685 10681 10677
10561 10566 10572 10582 10591 10584 10593 10600 10607 10609 10638 10654 10656 10658 10659 10665 10667 10671 10677 10681 10684 10693 10698 10701 10702 10707 10708 10712 10712 10714 10714 10711 10709 10708 10705 10701 10698 10693 10692 10689 10688 10686 10680 10676 10671
10521 10533 10545 10553 10564 10559 10563 10570 10577 10601 10637 10641 10647 10646 10645 10649 10653 10659 10666 10671 10678 10682 10687 10684 10691 10697 10699 10703 10703 10707 10706 10705 10704 10701 10699 10695 10692 10690 10687 10685 10681 10678 10674 10671 10667
10479 10494 10506 10522 10528 10525 10529 10536 10554 10616 10616 10622 10627 10627 10631 10632 10641 10647 10654 10663 10669 10675 10673 10680 10684 10684 10690 10695 10697 10701 10701 10699 10699 10696 10693 10689 10686 10683 10682 10679 10676 10672 10668 10666 10663
10432 10445 10467 10483 10489 10491 10492 10501 10571 10586 10589 10593 10603 10611 10617 10623 10626 10632 10643 10652 10654 10660 10664 10665 10670 10670 10683 10685 10692 10696 10696 10695 10694 10689 10687 10681 10680 10679 10676 10673 10670 10666 10663 10661 10659
10386 10403 10424 10434 10448 10453 10453 10504 10546 10554 10557 10569 10578 10594 10603 10607 10608 10617 10626 10642 10646 10651 10649 10658 10660 10664 10669 10680 10686 10687 10689 10689 10687 10684 10683 10677 10675 10675 10671 10668 10665 10661 10659 10657 10655
10351 10367 10370 10388 10399 10410 10428 10506 10515 10516 10528 10542 10555 10566 10582 10589 10598 10603 10615 10624 10633 10637 10636 10645 10649 10654 10660 10674 10675 10680 10682 10681 10682 10680 10678 10672 10669 10672 10666 10664 10661 10659 10656 10653 10653
10323 10332 10328 10347 10363 10384 10405 10473 10471 10479 10494 10516 10530 10545 10558 10569 10579 10587 10600 10609 10619 10621 10626 10635 10635 10646 10650 10661 10671 10675 10672 10674 10675 10675 10671 10669 10664 10668 10662 10660 10658 10656 10654 10650 10652
10295 10301 10304 10318 10339 10352 10381 10416 10418 10447 10467 10487 10506 10516 10528 10546 10560 10573 10578 10591 10602 10609 10613 10617 10637 10638 10641 10659 10663 10661 10662 10667 10669 10669 10667 10665 10661 10664 10659 10657 10655 10654 10650 10649 10650
10272 10275 10282 10295 10310 10321 10344 10369 10386 10417 10438 10459 10482 10503 10512 10529 10544 10553 10563 10575 10584 10594 10598 10601 10615 10630 10641 10642 10642 10653 10656 10660 10662 10664 10661 10656 10655 10660 10656 10653 10652 10651 10647 10647 10649
10253 10255 10263 10274 10284 10293 10310 10337 10364 10385 10406 10426 10461 10476 10483 10498 10516 10529 10541 10553 10562 10576 10582 10590 10608 10620 10627 10629 10637 10642 10647 10652 10657 10654 10655 10652 10650 10653 10653 10650 10651 10648 10646 10644 10647
10238 10239 10245 10253 10262 10276 10290 10310 10337 10356 10375 10397 10428 10440 10458 10481 10484 10504 10515 10534 10545 10559 10569 10579 10599 10606 10614 10620 10627 10631 10639 10647 10650 10646 10647 10649 10644 10649 10649 10645 10646 10645 10644 10642 10643
10222 10226 10229 10236 10246 10259 10266 10286 10311 10326 10343 10363 10393 10407 10436 10450 10472 10481 10506 10521 10534 10544 10556 10572 10582 10592 10607 10609 10607 10619 10636 10639 10640 10639 10641 10642 10637 10644 10645 10642 10643 10641 10640 10640 10641